Wind_Speed
5 5 5 5 4 4 4 4 4 4 4 4 4 4 3 2 2 2 2 1 1 0 1 2 3 3 3 3 3 3 4 5 5 5 5 4 4 3 4 4 3 2 2
5 5 5 5 5 5 5 5 5 5 5 5 5 4 3 3 3 2 2 2 2 1 1 2 3 3 3 3 3 3 3 3 3 4 5 4 4 3 3 2 3 2 2
5 5 5 6 5 5 6 5 5 5 6 6 6 5 4 4 4 3 3 3 2 2 1 2 3 3 3 3 3 3 3 2 3 4 5 5 4 3 3 2 2 2 2
6 6 6 6 6 6 6 6 6 6 6 6 6 5 4 4 4 3 3 3 3 2 2 2 3 3 4 4 3 4 4 4 4 4 5 5 5 4 3 3 3 2 2
7 7 6 6 6 6 6 6 6 6 6 6 6 5 4 4 4 4 4 4 4 3 2 3 3 4 4 3 4 4 4 4 4 4 5 5 5 6 5 4 4 3 3
8 7 7 7 6 6 6 6 6 6 7 6 6 5 5 5 5 5 5 5 4 3 3 3 4 4 4 3 4 4 4 5 5 5 6 5 4 5 6 5 5 4 4
8 8 7 7 6 6 6 7 7 7 7 7 7 6 6 5 5 5 5 5 4 4 4 4 5 5 5 4 4 4 4 5 5 5 5 5 5 6 6 6 6 5 5
9 10 8 7 7 6 7 7 7 7 7 7 7 7 7 6 6 5 4 4 4 5 5 5 6 6 6 6 5 5 5 5 6 5 5 5 5 5 6 6 6 6 6
9 9 9 8 7 7 7 6 7 7 7 7 8 8 7 7 6 5 4 4 5 6 6 6 6 6 6 6 6 6 6 6 6 6 5 6 5 6 6 6 6 6 6
10 9 9 8 8 8 8 7 7 8 8 8 8 8 8 7 6 6 6 6 5 6 7 7 6 6 6 6 7 7 7 7 7 7 6 6 6 6 6 6 6 7 7
10 10 9 9 9 9 9 9 9 9 9 9 9 9 9 9 8 7 7 7 7 7 7 7 7 7 8 7 8 7 8 8 8 8 7 7 7 6 7 7 8 8 9
11 11 11 11 10 10 10 10 10 9 10 9 9 9 10 10 9 8 8 8 8 8 8 8 8 9 9 8 8 9 9 8 8 8 8 8 8 7 8 8 8 8 8
12 12 12 12 11 11 11 10 10 11 11 10 10 10 10 11 11 9 8 8 8 9 9 9 9 9 9 9 9 9 10 10 9 9 9 9 9 9 9 9 9 9 9
11 12 12 12 11 12 12 11 11 12 12 11 11 11 11 11 11 9 9 8 8 9 9 9 9 9 10 10 10 10 10 10 10 9 9 9 10 9 10 11 11 11 10
12 12 13 13 13 13 13 13 13 13 13 13 12 12 12 11 11 10 9 9 9 9 9 9 9 9 10 9 10 10 10 10 10 10 10 10 10 10 10 11 11 12 11
13 13 13 13 13 13 13 14 14 14 14 13 13 12 11 11 11 10 10 9 9 9 9 9 9 9 9 10 10 10 10 10 10 10 10 10 10 11 12 12 12 11 12
13 13 13 14 14 14 14 15 15 15 15 15 14 13 12 12 11 10 10 9 9 9 10 9 9 9 9 10 11 11 11 11 11 11 11 11 11 11 11 12 11 11 11
14 13 14 14 15 15 15 16 15 16 16 16 14 13 13 12 11 11 10 10 10 10 10 10 10 10 10 10 10 10 11 11 11 12 12 12 11 11 11 11 11 11 11
15 14 14 15 15 16 16 17 16 17 17 15 14 13 13 12 11 11 11 10 11 11 11 11 11 11 11 10 11 11 11 11 12 12 13 12 12 12 12 11 11 11 12
15 15 14 15 15 16 17 18 18 17 16 15 15 14 13 12 11 11 10 10 11 11 12 11 11 10 10 10 10 11 11 12 12 12 12 12 12 12 13 13 12 12 12
16 16 16 16 16 17 17 18 19 18 16 15 14 13 12 11 11 10 10 11 12 12 12 11 11 11 10 10 11 11 12 12 12 13 12 12 12 12 13 13 13 13 13
17 17 17 18 18 18 18 18 18 17 16 15 14 13 13 12 11 10 11 11 12 12 11 11 11 11 11 11 12 11 12 12 13 13 13 13 13 14 13 14 14 14 14
18 17 17 18 18 19 19 19 18 16 15 15 15 14 13 12 12 12 12 12 11 11 11 11 12 12 12 13 12 12 12 13 13 13 13 13 14 14 14 14 14 14 14
19 19 18 18 18 19 19 18 17 17 16 15 15 13 13 12 12 12 12 11 11 11 12 12 12 13 13 13 13 13 13 13 13 13 14 14 14 14 14 14 14 14 14
19 19 19 18 18 18 18 17 16 16 15 15 15 13 13 13 12 12 11 11 11 11 12 12 12 12 13 12 12 13 13 14 13 14 14 14 14 14 14 14 14 14 14
20 19 18 18 18 18 17 16 16 16 15 15 14 14 13 13 13 12 11 11 12 11 11 11 11 11 11 12 12 12 12 13 13 14 13 13 13 13 14 14 14 15 15
Wind_Direction
344 347 339 339 334 327 325 326 329 324 319 317 309 298 288 276 274 277 265 261 255 282 166 160 147 164 158 155 160 163 178 186 185 182 180 176 178 177 176 182 186 184 175
336 342 339 334 328 321 317 320 326 324 321 318 311 299 286 272 264 261 253 253 249 240 189 162 156 162 166 162 158 165 171 181 183 185 191 194 196 201 199 191 200 209 191
332 333 331 327 325 321 318 321 323 324 322 315 308 301 288 274 262 260 257 247 243 235 224 202 186 179 180 187 180 186 197 196 196 190 198 198 195 201 206 205 211 208 196
332 329 325 325 323 319 315 314 317 321 319 311 306 302 294 281 268 267 265 253 246 239 226 220 217 200 199 206 202 206 205 205 213 207 206 199 194 199 212 217 221 222 219
330 328 322 324 323 320 317 315 314 317 317 313 309 306 306 297 286 278 270 257 249 245 242 245 235 218 214 215 213 219 220 221 221 214 216 213 205 210 219 224 226 229 229
336 334 325 323 320 321 322 322 321 319 316 316 314 310 309 302 293 289 274 257 253 247 251 255 246 232 230 228 225 231 222 218 219 217 221 225 226 228 227 227 231 234 232
337 338 332 327 324 320 321 322 323 321 316 314 313 309 306 301 298 301 282 250 246 247 249 250 250 243 238 237 232 242 234 227 222 229 228 230 232 236 232 233 235 234 237
338 338 334 333 330 322 320 321 321 321 319 316 313 307 301 300 297 297 280 253 251 248 255 250 249 246 242 240 235 234 235 227 225 232 238 243 253 254 241 235 237 242 238
336 337 337 341 341 332 326 324 323 320 319 316 312 307 297 292 291 285 274 263 257 256 258 259 253 250 247 242 235 235 235 235 239 238 240 248 258 262 257 245 239 249 248
330 331 330 336 339 336 332 327 324 320 316 313 308 306 298 289 287 280 271 267 262 265 265 269 264 256 248 243 239 239 242 244 243 248 249 254 261 265 266 261 254 254 255
324 326 326 328 328 329 329 325 320 318 313 310 304 300 296 291 286 278 272 267 264 266 268 267 259 254 251 249 243 245 251 254 251 248 255 259 262 266 270 274 273 268 264
319 324 324 323 324 324 326 323 319 316 312 308 304 298 294 290 286 280 272 268 268 266 267 266 260 256 253 251 248 249 252 258 253 251 258 264 263 265 269 273 276 277 271
315 317 321 322 322 324 324 324 322 320 318 310 305 301 297 295 293 287 278 275 272 267 264 266 262 256 252 252 252 252 254 256 257 258 260 265 265 265 266 271 273 272 275
315 316 319 318 320 320 321 321 320 319 318 315 308 302 299 297 295 288 279 278 279 272 266 265 264 262 259 257 255 253 255 256 257 258 260 265 266 268 269 270 269 271 276
316 315 315 317 317 317 318 318 318 318 316 314 312 305 299 297 294 289 285 281 279 275 271 270 271 267 263 262 260 259 260 257 261 262 263 264 265 266 267 267 269 271 275
311 310 310 313 316 318 318 317 316 316 315 316 314 309 300 296 294 292 288 285 280 278 273 272 270 268 266 263 262 264 262 260 260 262 262 265 266 266 265 267 268 270 276
306 306 307 309 313 316 318 317 317 316 315 315 313 309 303 299 296 296 292 287 285 284 281 276 275 271 269 269 267 265 263 264 264 264 265 266 267 269 270 268 267 273 277
304 305 306 307 310 311 315 316 315 315 313 312 311 307 304 300 299 296 293 288 284 285 283 280 279 273 274 274 267 264 262 264 265 265 267 267 268 267 270 269 271 273 275
299 301 304 305 308 310 312 314 312 313 311 310 309 306 302 300 298 295 292 286 285 283 284 282 282 278 273 271 267 267 267 267 267 269 269 269 269 267 271 274 278 279 278
297 299 301 302 305 310 312 314 313 311 308 308 309 308 304 302 299 296 291 288 286 285 287 287 282 277 272 270 269 269 269 267 268 270 271 273 271 267 271 274 275 278 278
292 296 299 301 303 308 312 313 313 311 308 308 309 309 306 302 299 295 294 292 294 291 285 282 282 279 276 273 273 273 270 267 268 271 271 271 272 272 273 274 275 277 277
289 292 297 300 301 305 309 310 312 311 308 305 306 305 304 300 299 297 295 292 292 293 286 278 279 278 278 277 277 275 273 272 269 271 272 272 273 275 275 275 276 275 274
287 289 293 298 300 303 306 308 310 307 308 307 304 303 303 302 300 299 297 291 288 287 287 279 277 278 278 278 277 276 277 275 270 271 273 272 272 273 274 275 277 274 273
286 288 289 294 298 301 304 305 306 306 307 307 307 305 305 305 301 299 298 292 290 289 286 283 279 277 276 277 276 277 278 276 273 272 273 274 274 273 273 275 275 275 276
283 285 287 289 293 298 302 303 302 302 303 304 304 303 304 306 305 302 298 296 291 291 288 285 282 277 275 277 281 281 278 276 277 276 275 274 275 275 275 275 276 277 278
279 280 284 288 291 295 300 301 300 299 299 300 300 300 301 305 303 299 295 297 296 295 289 287 285 280 278 281 282 282 279 279 280 277 277 277 275 275 276 276 278 278 278
Height
5888 5887 5887 5886 5886 5885 5885 5884 5883 5882 5882 5881 5880 5879 5879 5879 5878 5878 5878 5877 5877 5877 5876 5876 5876 5876 5876 5877 5877 5878 5879 5880 5881 5882 5883 5884 5885 5886 5887 5887 5888 5888 5889
5888 5887 5887 5886 5886 5885 5884 5884 5883 5882 5882 5881 5880 5879 5879 5878 5878 5878 5878 5878 5877 5877 5877 5876 5876 5876 5877 5877 5878 5879 5879 5880 5881 5882 5883 5884 5885 5886 5887 5887 5888 5889 5889
5888 5887 5887 5886 5885 5885 5884 5883 5883 5882 5881 5880 5879 5879 5878 5878 5878 5877 5877 5877 5877 5877 5877 5877 5877 5877 5877 5878 5879 5879 5880 5881 5881 5882 5883 5884 5885 5886 5886 5887 5888 5888 5889
5888 5887 5886 5886 5885 5884 5884 5883 5882 5882 5881 5880 5879 5878 5878 5877 5877 5877 5876 5876 5876 5877 5877 5877 5878 5878 5878 5878 5879 5879 5880 5881 5881 5882 5882 5883 5885 5885 5886 5887 5888 5888 5889
5888 5887 5886 5885 5884 5883 5883 5882 5882 5881 5880 5880 5879 5878 5877 5877 5876 5876 5875 5875 5876 5876 5877 5877 5877 5878 5878 5878 5879 5879 5879 5880 5881 5881 5882 5883 5884 5885 5886 5886 5887 5888 5888
5887 5886 5885 5884 5883 5883 5882 5882 5881 5881 5880 5879 5878 5877 5877 5876 5875 5874 5873 5873 5875 5876 5877 5877 5877 5878 5878 5878 5878 5878 5878 5880 5881 5881 5882 5883 5883 5884 5885 5886 5886 5887 5888
5886 5885 5884 5883 5883 5882 5882 5881 5881 5880 5879 5879 5878 5877 5876 5875 5874 5872 5869 5871 5874 5875 5876 5876 5877 5877 5877 5878 5878 5878 5878 5879 5880 5880 5881 5882 5883 5883 5884 5885 5885 5886 5887
5886 5885 5883 5882 5882 5881 5881 5880 5880 5879 5878 5878 5877 5876 5875 5875 5874 5872 5871 5871 5874 5875 5876 5876 5876 5876 5877 5877 5877 5878 5877 5878 5879 5880 5881 5881 5882 5883 5883 5884 5884 5885 5885
5886 5884 5883 5882 5881 5881 5881 5880 5879 5878 5878 5877 5876 5875 5874 5874 5873 5872 5872 5872 5873 5874 5875 5875 5875 5875 5876 5876 5876 5877 5877 5877 5878 5879 5880 5880 5881 5882 5882 5882 5883 5883 5883
5885 5884 5883 5882 5881 5880 5880 5879 5878 5877 5877 5876 5875 5874 5873 5873 5872 5872 5872 5872 5873 5873 5874 5874 5874 5874 5875 5875 5876 5876 5876 5877 5877 5878 5879 5879 5880 5880 5881 5881 5882 5882 5883
5884 5883 5883 5882 5881 5880 5879 5878 5877 5876 5876 5875 5874 5873 5872 5872 5871 5871 5871 5871 5872 5872 5873 5873 5873 5873 5874 5874 5875 5875 5876 5876 5876 5877 5877 5878 5879 5879 5880 5880 5880 5881 5881
5884 5882 5882 5881 5880 5879 5878 5877 5876 5876 5875 5874 5873 5872 5871 5871 5870 5870 5870 5870 5870 5871 5871 5871 5872 5872 5872 5873 5874 5874 5875 5875 5874 5875 5876 5877 5877 5878 5878 5879 5879 5879 5880
5884 5883 5881 5880 5879 5878 5877 5876 5875 5874 5873 5872 5871 5870 5869 5869 5869 5868 5868 5868 5868 5869 5869 5870 5870 5870 5871 5872 5872 5873 5873 5874 5874 5874 5875 5875 5876 5877 5877 5877 5877 5878 5878
5883 5881 5880 5879 5878 5877 5876 5875 5874 5873 5871 5870 5869 5868 5868 5867 5867 5867 5867 5867 5867 5867 5867 5868 5868 5868 5869 5870 5870 5871 5871 5872 5872 5873 5873 5874 5874 5874 5875 5875 5876 5876 5876
5881 5880 5879 5879 5877 5876 5875 5874 5873 5871 5870 5869 5868 5866 5866 5865 5865 5865 5865 5865 5865 5865 5865 5866 5866 5867 5867 5867 5868 5869 5869 5870 5870 5871 5871 5872 5872 5872 5873 5873 5874 5874 5874
5880 5879 5878 5877 5876 5875 5874 5872 5871 5870 5868 5867 5866 5864 5864 5863 5863 5863 5863 5863 5863 5863 5863 5864 5864 5865 5865 5865 5866 5866 5867 5868 5868 5869 5869 5869 5870 5870 5871 5871 5871 5871 5871
5879 5878 5877 5876 5875 5874 5872 5871 5869 5868 5867 5865 5864 5863 5862 5861 5861 5861 5861 5861 5861 5861 5861 5862 5862 5862 5863 5863 5863 5864 5864 5865 5865 5866 5866 5867 5867 5868 5868 5869 5869 5869 5869
5877 5877 5876 5875 5874 5872 5871 5869 5868 5866 5865 5863 5862 5861 5860 5859 5859 5859 5859 5859 5859 5859 5859 5860 5860 5860 5861 5861 5861 5862 5862 5863 5863 5863 5864 5864 5865 5865 5866 5866 5866 5866 5866
5875 5875 5874 5873 5872 5871 5869 5868 5866 5865 5862 5861 5860 5859 5858 5857 5857 5857 5857 5856 5856 5857 5857 5857 5858 5858 5858 5859 5859 5860 5860 5860 5860 5861 5861 5862 5862 5862 5863 5863 5863 5863 5863
5873 5873 5872 5871 5870 5869 5867 5866 5864 5862 5860 5859 5858 5857 5856 5856 5855 5855 5854 5854 5854 5854 5854 5855 5855 5855 5856 5856 5857 5857 5857 5857 5858 5858 5858 5858 5859 5859 5859 5859 5859 5860 5860
5871 5871 5870 5869 5868 5867 5865 5863 5861 5860 5858 5857 5856 5855 5854 5854 5853 5853 5853 5852 5852 5852 5852 5852 5853 5853 5853 5854 5854 5854 5854 5854 5854 5854 5855 5855 5855 5856 5856 5856 5856 5856 5857
5869 5868 5867 5866 5865 5864 5862 5861 5859 5857 5856 5855 5854 5853 5852 5851 5851 5851 5851 5850 5850 5850 5850 5850 5850 5850 5851 5851 5851 5851 5851 5852 5851 5851 5851 5852 5852 5852 5852 5853 5853 5853 5853
5866 5865 5865 5864 5863 5861 5860 5858 5857 5855 5854 5853 5852 5851 5850 5849 5849 5849 5848 5848 5848 5848 5847 5847 5847 5848 5848 5848 5848 5848 5848 5848 5848 5848 5847 5848 5848 5848 5849 5849 5849 5849 5849
5862 5862 5861 5861 5860 5859 5857 5856 5854 5853 5852 5851 5850 5849 5848 5847 5847 5846 5846 5845 5845 5845 5845 5845 5845 5845 5845 5845 5845 5845 5845 5844 5844 5844 5845 5844 5844 5844 5845 5845 5845 5845 5845
5859 5858 5858 5858 5857 5856 5854 5853 5852 5851 5850 5849 5848 5847 5846 5845 5845 5844 5843 5843 5843 5843 5842 5842 5842 5842 5842 5842 5842 5842 5841 5841 5841 5841 5841 5841 5841 5841 5841 5841 5841 5841 5841
5855 5855 5854 5854 5854 5852 5851 5850 5849 5848 5847 5847 5846 5845 5844 5843 5843 5842 5841 5841 5840 5840 5840 5840 5839 5839 5839 5839 5839 5838 5838 5838 5837 5837 5837 5837 5837 5838 5838 5838 5838 5837 5837